• In Germany
  • List of Countries
  • For 7 days
  • Water Temperature
  • Satellite Maps
  • Weather Map
  • Weather Widgets
  • user-avatar
    Login

    Hourly Weather Hrazdan

    Today, 25 February, Sunday

    Time Temperature Precipitation Wind Pressure Humidity
    00:00 -3°C° 0 mm 1 mps 605 mmHg 69%
    01:00 -3°C° 0 mm 1 mps 605 mmHg 68%
    02:00 -3°C° 0 mm 1 mps 605 mmHg 68%
    03:00 -3°C° 0 mm 1 mps 604 mmHg 70%
    04:00 -3°C° 0 mm 1 mps 604 mmHg 70%
    05:00 -4°C° 0 mm 1 mps 604 mmHg 70%
    06:00 -4°C° 0 mm 1 mps 604 mmHg 70%
    07:00 -2°C° 0 mm 1 mps 605 mmHg 69%
    08:00 -3°C° 0 mm 2 mps 605 mmHg 69%
    09:00 -2°C° 0 mm 2 mps 605 mmHg 69%
    10:00 -1°C° 0 mm 2 mps 605 mmHg 68%
    11:00 +1°C° 0 mm 2 mps 605 mmHg 66%
    12:00 +1°C° 0 mm 3 mps 605 mmHg 65%
    13:00 +1°C° 0 mm 3 mps 605 mmHg 64%
    14:00 +2°C° 0 mm 3 mps 605 mmHg 63%
    15:00 +2°C° 0 mm 3 mps 604 mmHg 61%
    16:00 +2°C° 0 mm 2 mps 604 mmHg 64%
    17:00 -1°C° 0 mm 2 mps 604 mmHg 66%
    18:00 -2°C° 0 mm 2 mps 603 mmHg 68%
    19:00 -2°C° 0 mm 2 mps 603 mmHg 69%
    20:00 -3°C° 0 mm 2 mps 604 mmHg 70%
    21:00 -3°C° 0 mm 2 mps 604 mmHg 70%
    22:00 -3°C° 0.1 mm 2 mps 604 mmHg 71%
    23:00 -2°C° 0.1 mm 2 mps 604 mmHg 71%

    Tomorrow, 26 February, Monday

    Time Temperature Precipitation Wind Pressure Humidity
    00:00 -2°C° 0.1 mm 2 mps 604 mmHg 72%
    01:00 -2°C° 0.2 mm 2 mps 604 mmHg 74%
    02:00 -2°C° 0.2 mm 2 mps 604 mmHg 76%
    03:00 -2°C° 0.2 mm 2 mps 604 mmHg 78%
    04:00 -2°C° 0.1 mm 2 mps 604 mmHg 78%
    05:00 -3°C° 0.1 mm 2 mps 604 mmHg 79%
    06:00 -3°C° 0.1 mm 2 mps 604 mmHg 79%
    07:00 -2°C° 0.3 mm 2 mps 604 mmHg 79%
    08:00 -2°C° 0.3 mm 2 mps 605 mmHg 79%
    09:00 -1°C° 0.3 mm 2 mps 605 mmHg 79%
    10:00 -1°C° 0.2 mm 2 mps 605 mmHg 77%
    11:00 +1°C° 0.2 mm 2 mps 606 mmHg 74%
    12:00 +2°C° 0.2 mm 2 mps 606 mmHg 72%
    13:00 +2°C° 0.1 mm 2 mps 606 mmHg 70%
    14:00 +2°C° 0.1 mm 2 mps 605 mmHg 68%
    15:00 +3°C° 0.1 mm 2 mps 605 mmHg 67%
    16:00 +2°C° 0 mm 2 mps 605 mmHg 69%
    17:00 +2°C° 0 mm 1 mps 605 mmHg 70%
    18:00 +1°C° 0 mm 1 mps 605 mmHg 72%
    19:00 0°C° 0 mm 1 mps 605 mmHg 72%
    20:00 0°C° 0 mm 1 mps 605 mmHg 73%
    21:00 -1°C° 0 mm 1 mps 605 mmHg 73%
    22:00 -1°C° 0 mm 1 mps 605 mmHg 72%
    23:00 -1°C° 0 mm 1 mps 605 mmHg 72%

    Day after tomorrow, 27 February, Tuesday

    Time Temperature Precipitation Wind Pressure Humidity
    00:00 -1°C° 0 mm 1 mps 606 mmHg 72%
    01:00 -1°C° 0.1 mm 1 mps 606 mmHg 73%
    02:00 -1°C° 0.1 mm 1 mps 606 mmHg 75%
    03:00 -1°C° 0.1 mm 1 mps 606 mmHg 76%
    04:00 -1°C° 0.1 mm 1 mps 606 mmHg 78%
    05:00 -1°C° 0.1 mm 1 mps 607 mmHg 80%
    06:00 -1°C° 0.1 mm 1 mps 607 mmHg 82%
    07:00 0°C° 0.1 mm 1 mps 607 mmHg 81%
    08:00 0°C° 0.1 mm 1 mps 607 mmHg 81%
    09:00 -1°C° 0.1 mm 2 mps 608 mmHg 80%
    10:00 +1°C° 0.1 mm 2 mps 608 mmHg 79%
    11:00 +1°C° 0.1 mm 2 mps 608 mmHg 78%
    12:00 +2°C° 0.1 mm 2 mps 608 mmHg 78%
    13:00 +2°C° 0 mm 2 mps 607 mmHg 75%
    14:00 +3°C° 0 mm 2 mps 607 mmHg 73%
    15:00 +3°C° 0 mm 2 mps 607 mmHg 71%
    16:00 +2°C° 0 mm 2 mps 607 mmHg 73%
    17:00 +1°C° 0 mm 2 mps 607 mmHg 75%
    18:00 -1°C° 0 mm 2 mps 607 mmHg 77%
    19:00 -1°C° 0.1 mm 2 mps 607 mmHg 77%
    20:00 -1°C° 0.1 mm 2 mps 607 mmHg 78%
    21:00 -1°C° 0.1 mm 2 mps 607 mmHg 78%
    22:00 -1°C° 0.1 mm 2 mps 608 mmHg 79%
    23:00 -1°C° 0.1 mm 2 mps 608 mmHg 79%

    28 February, Wednesday

    Time Temperature Precipitation Wind Pressure Humidity
    00:00 -1°C° 0.1 mm 2 mps 608 mmHg 80%
    01:00 -1°C° 0.1 mm 2 mps 608 mmHg 81%
    02:00 -2°C° 0.1 mm 2 mps 608 mmHg 82%
    03:00 -2°C° 0.1 mm 2 mps 608 mmHg 82%
    04:00 -2°C° 0 mm 2 mps 608 mmHg 82%
    05:00 -2°C° 0 mm 2 mps 608 mmHg 82%
    06:00 -3°C° 0 mm 2 mps 608 mmHg 82%
    07:00 -2°C° 0 mm 2 mps 609 mmHg 79%
    08:00 -1°C° 0 mm 2 mps 609 mmHg 75%
    09:00 +1°C° 0 mm 2 mps 610 mmHg 72%
    10:00 +2°C° 0 mm 2 mps 610 mmHg 70%
    11:00 +3°C° 0 mm 2 mps 610 mmHg 68%
    12:00 +4°C° 0 mm 2 mps 610 mmHg 65%
    13:00 +4°C° 0 mm 2 mps 610 mmHg 64%
    14:00 +4°C° 0 mm 2 mps 610 mmHg 62%
    15:00 +5°C° 0 mm 1 mps 610 mmHg 60%
    16:00 +4°C° 0 mm 1 mps 609 mmHg 62%
    17:00 +3°C° 0 mm 1 mps 609 mmHg 64%
    18:00 +1°C° 0 mm 1 mps 608 mmHg 66%
    19:00 +1°C° 0 mm 1 mps 608 mmHg 67%
    20:00 +1°C° 0 mm 1 mps 609 mmHg 67%
    21:00 0°C° 0 mm 1 mps 609 mmHg 68%
    22:00 0°C° 0 mm 1 mps 609 mmHg 67%
    23:00 0°C° 0 mm 1 mps 609 mmHg 67%

    1 March, Thursday

    Time Temperature Precipitation Wind Pressure Humidity
    00:00 0°C° 0 mm 1 mps 609 mmHg 66%
    01:00 -1°C° 0 mm 1 mps 608 mmHg 66%
    02:00 -1°C° 0 mm 1 mps 608 mmHg 66%
    03:00 -1°C° 0 mm 1 mps 608 mmHg 66%
    04:00 -1°C° 0 mm 1 mps 608 mmHg 68%
    05:00 -1°C° 0 mm 1 mps 607 mmHg 69%
    06:00 -2°C° 0 mm 1 mps 607 mmHg 70%
    07:00 -1°C° 0 mm 1 mps 608 mmHg 69%
    08:00 -2°C° 0 mm 2 mps 608 mmHg 68%
    09:00 +1°C° 0 mm 2 mps 608 mmHg 68%
    10:00 +1°C° 0 mm 2 mps 608 mmHg 65%
    11:00 +2°C° 0 mm 2 mps 608 mmHg 63%
    12:00 +3°C° 0 mm 2 mps 608 mmHg 61%
    13:00 +3°C° 0 mm 2 mps 607 mmHg 60%
    14:00 +4°C° 0 mm 2 mps 607 mmHg 60%
    15:00 +4°C° 0 mm 2 mps 607 mmHg 59%
    16:00 +3°C° 0 mm 2 mps 606 mmHg 62%
    17:00 +2°C° 0 mm 2 mps 606 mmHg 65%
    18:00 +1°C° 0 mm 2 mps 606 mmHg 68%
    19:00 +1°C° 0 mm 2 mps 606 mmHg 69%
    20:00 -1°C° 0 mm 2 mps 606 mmHg 70%
    21:00 -1°C° 0 mm 2 mps 606 mmHg 72%
    22:00 -1°C° 0.1 mm 2 mps 606 mmHg 73%
    23:00 -1°C° 0.1 mm 2 mps 606 mmHg 75%

    2 March, Friday

    Time Temperature Precipitation Wind Pressure Humidity
    00:00 -1°C° 0.1 mm 2 mps 606 mmHg 76%
    01:00 0°C° 0.6 mm 1 mps 605 mmHg 80%
    02:00 0°C° 0.6 mm 1 mps 605 mmHg 84%
    03:00 0°C° 0.6 mm 1 mps 605 mmHg 87%
    04:00 0°C° 0.6 mm 1 mps 605 mmHg 88%
    05:00 -2°C° 0.6 mm 2 mps 606 mmHg 88%
    06:00 -2°C° 0.6 mm 2 mps 606 mmHg 88%
    07:00 -2°C° 0.3 mm 2 mps 606 mmHg 86%
    08:00 -2°C° 0.3 mm 2 mps 607 mmHg 84%
    09:00 -2°C° 0.3 mm 3 mps 607 mmHg 82%
    10:00 -1°C° 0.2 mm 3 mps 607 mmHg 77%
    11:00 -2°C° 0.2 mm 4 mps 607 mmHg 72%
    12:00 -2°C° 0.2 mm 4 mps 608 mmHg 67%
    13:00 -1°C° 0 mm 4 mps 608 mmHg 63%
    14:00 -1°C° 0 mm 4 mps 607 mmHg 59%
    15:00 -1°C° 0 mm 4 mps 607 mmHg 55%
    16:00 -1°C° 0 mm 3 mps 607 mmHg 57%
    17:00 -3°C° 0 mm 2 mps 607 mmHg 59%
    18:00 -2°C° 0 mm 1 mps 607 mmHg 60%
    19:00 -2°C° 0 mm 1 mps 607 mmHg 60%
    20:00 -3°C° 0 mm 1 mps 608 mmHg 59%
    21:00 -3°C° 0 mm 1 mps 608 mmHg 59%
    22:00 -3°C° 0 mm 1 mps 608 mmHg 58%
    23:00 -4°C° 0 mm 1 mps 608 mmHg 57%
    Show more